Location: Mentone
(34.5413°N, 85.5351°W)
Time: 09:02:05
(UTC-05:00)

Vanguard 1 - Visible Passes

Search period start: 21 August 2014 00:00
Search period end: 31 August 2014 00:00
Orbit: 650 x 3837 km, 34.2° (Epoch: 20 August)

Date Brightness Start Highest point End Pass type
(mag) Time Alt. Az. Time Alt. Az. Time Alt. Az.
21 Aug 10.8 02:57:08 75° S 02:57:29 75° SSE 03:04:31 10° E visible
21 Aug 10.0 05:10:07 10° W 05:18:43 86° S 05:23:50 10° E visible
21 Aug 13.8 22:18:10 10° S 22:20:35 13° S 22:20:35 13° S visible
22 Aug 12.6 01:04:29 18° E 01:04:29 18° E 01:06:11 10° E visible
22 Aug 10.7 03:17:13 62° WSW 03:19:13 83° S 03:26:00 10° E visible
22 Aug 10.0 05:32:12 10° W 05:40:19 78° SSW 05:45:17 10° ESE visible
22 Aug 13.7 22:37:52 10° SSW 22:41:56 16° SSW 22:41:56 16° SSW visible
23 Aug 12.2 01:24:34 29° E 01:24:34 29° E 01:27:51 10° E visible
23 Aug 10.6 03:37:18 45° W 03:40:58 88° S 03:47:30 10° E visible
23 Aug 13.6 20:42:22 10° SSE 20:50:33 14° SE 20:50:33 14° SE visible
23 Aug 13.6 22:58:18 10° SSW 23:03:25 19° SSW 23:03:25 19° SSW visible
24 Aug 11.8 01:44:39 42° E 01:44:39 42° E 01:49:25 10° E visible
24 Aug 10.5 03:57:24 33° W 04:02:42 89° S 04:08:59 10° E visible
24 Aug 13.3 20:59:36 10° S 21:12:09 21° SSE 21:12:09 21° SSE visible
24 Aug 13.4 23:19:16 10° SW 23:25:01 21° SSW 23:25:01 21° SSW visible
25 Aug 11.4 02:04:45 60° E 02:04:45 60° E 02:10:58 10° E visible
25 Aug 10.4 04:17:30 23° W 04:24:25 85° S 04:30:27 10° E visible
25 Aug 13.1 21:18:38 10° SSW 21:33:51 28° SSE 21:33:51 28° SSE visible
25 Aug 13.1 23:40:40 10° SW 00:12:08 11° E 00:12:16 10° E visible
26 Aug 11.1 02:24:53 81° ESE 02:24:53 81° ESE 02:32:29 10° E visible
26 Aug 10.4 04:37:38 16° W 04:46:04 77° SSW 04:51:53 10° ESE visible
26 Aug 13.6 19:29:11 10° SE 19:32:58 11° SE 19:36:37 10° SE visible
26 Aug 12.9 21:38:34 10° SSW 21:55:38 36° SSE 21:55:38 36° SSE visible
27 Aug 12.9 00:02:26 10° SW 00:32:17 18° E 00:33:57 10° E visible
27 Aug 11.1 02:45:02 78° W 02:46:04 89° S 02:54:01 10° E visible
27 Aug 10.4 04:57:47 10° W 05:07:37 65° SSW 05:13:13 10° ESE visible
27 Aug 13.4 19:42:32 10° S 19:54:55 17° SE 20:04:35 12° ESE visible
27 Aug 12.7 21:59:08 10° SSW 22:17:29 44° SSE 22:17:29 44° SSE visible
28 Aug 12.6 00:24:30 10° WSW 00:52:30 26° E 00:55:34 10° E visible
28 Aug 11.0 03:05:15 60° W 03:07:54 89° S 03:15:32 10° E visible
28 Aug 10.5 05:19:56 10° W 05:29:02 51° SSW 05:34:24 10° SE visible
28 Aug 13.3 20:00:30 10° S 20:16:47 24° SE 20:26:28 17° ESE visible
28 Aug 12.5 22:20:11 10° SW 22:39:22 52° S 22:39:22 52° S visible
29 Aug 12.2 00:46:49 10° WSW 01:12:47 36° E 01:17:10 10° E visible
29 Aug 10.9 03:25:33 46° W 03:29:42 85° S 03:37:01 10° ESE visible
29 Aug 10.8 05:42:13 10° W 05:50:18 37° SW 05:55:21 10° SSE visible
29 Aug 13.1 20:19:48 10° SSW 20:38:37 32° SE 20:48:19 22° ESE visible
29 Aug 12.4 22:41:38 10° SW 23:01:13 59° S 23:01:13 59° S visible
30 Aug 11.9 01:09:19 10° W 01:33:11 46° E 01:38:45 10° E visible
30 Aug 10.8 03:45:57 36° W 03:51:26 77° SSW 03:58:27 10° ESE visible
30 Aug 13.0 20:39:53 10° SSW 21:00:28 40° SE 21:10:05 27° E visible
30 Aug 12.3 23:03:25 10° WSW 23:22:58 65° SSW 23:22:58 65° SSW visible
